Tracking 35280 objects as of 7-Sep-2026
HD Live streaming from Space Station
objects crossing your sky now

ION SCV-017

Track ION SCV-017 now!
10-day predictions
ION SCV-017 is classified as:


NORAD ID: 63230
Int'l Code: 2025-052W
Launch date: March 15, 2025
Source: Italy (IT)
Launch site: AIR FORCE WESTERN TEST RANGE (AFWTR)

Uplink (MHz):
Downlink (MHz): 401.415/2275.500
Beacon (MHz):
Mode: 1k2 FSK
Call sign:
Status: Active

Your satellite tracking list
Your tracking list is empty




NASA's NSSDC Master Catalog

Two Line Element Set (TLE):
1 63230U 25052W   26250.02109992  .00002779  00000-0  10259-3 0  9990
2 63230  97.3787 144.4768 0023243 117.8503 242.5095 15.28361551 82532
Source of the keplerian elements: AFSPC